Tracking 19575 objects as of 18-Feb-2019
HD Live streaming from Space Station
objects crossing your sky now

COSMOS 1862

Track COSMOS 1862 now!
10-day predictions
COSMOS 1862 is classified as:


NORAD ID: 18152
Int'l Code: 1987-055A
Perigee: 546.9 km
Apogee: 563.8 km
Inclination: 82.5 °
Period: 95.6 minutes
Semi major axis: 6926 km
RCS: 8.6433 m2 (large)
Launch date: July 1, 1987
Source: Commonwealth of Independent States (former USSR) (CIS)
Launch site: PLESETSK MISSILE AND SPACE COMPLEX (PKMTR)
aabbcc
Your satellite tracking list
Your tracking list is empty




NASA's NSSDC Master Catalog

Two Line Element Set (TLE):
1 18152U 87055A   19048.58646829  .00000459  00000-0  29419-4 0  9999
2 18152  82.4943  60.7902 0012211 292.2177  67.7754 15.06078089721527
Source of the keplerian elements: AFSPC